Weather History for Bedford, MA

Change the Weather History Date:

Tuesday, April 16, 2013

  Actual Average Record
Temperature  
Mean Temperature 50 °F -  
Max Temperature 66 °F 59 °F 90 °F (2012)
Min Temperature 36 °F 36 °F 22 °F (1992)
Degree Days  
Heating Degree Days 15    
Moisture  
Dew Point 42 °F    
Average Humidity 72    
Maximum Humidity 100    
Minimum Humidity 47    
Precipitation  
Precipitation 0.00 in - - ()
Sea Level Pressure  
Sea Level Pressure 30.27 in    
Wind  
Wind Speed 9 mph (SSW)    
Max Wind Speed 22 mph    
Max Gust Speed 32 mph    
Visibility 10 miles    
Events Rain    
Averages and records for this station are not official NWS values.
T = Trace of Precipitation, MM = Missing Value Source: NWS Daily Summary

Daily Weather History Graph

Daily Weather History Graph

Search for Another Location

Airport:

Trip Planner

Search our weather history database for the weather conditions in past years. The results will help you decide how hot, cold, wet, or windy it might be!

Date:

Astronomy

Apr. 16, 2013 Rise Set
Actual Time 6:02 AM EDT 7:28 PM EDT
Civil Twilight 5:32 AM EDT 7:57 PM EDT
Nautical Twilight 4:57 AM EDT 8:33 PM EDT
Astronomical Twilight 4:20 AM EDT 9:10 PM EDT
Moon 10:14 AM EDT (4/16) 12:26 AM EDT (4/16)
Length of Visible Light 14h 24m
Length of Day
13h 26m
Waxing Crescent, 33% of the Moon is Illuminated
Apr 16
Waxing Crescent
Apr 18
First Quarter
Apr 25
Full
May 2
Last Quarter
May 9
New

Hourly Weather History & Observations

Time (EDT) Temp. Windchill Dew Point Humidity Pressure Visibility Wind Dir Wind Speed Gust Speed Precip Events Conditions
12:56 AM 41.0 °F 37.1 °F 36.0 °F 82% 30.43 in 10.0 mi South 5.8 mph - N/A   Clear
1:56 AM 39.9 °F 37.8 °F 37.0 °F 89% 30.43 in 10.0 mi SSE 3.5 mph - N/A   Clear
2:56 AM 39.0 °F - 37.0 °F 93% 30.43 in 10.0 mi Calm Calm - N/A   Clear
3:56 AM 37.9 °F 35.5 °F 37.0 °F 97% 30.43 in 10.0 mi SSW 3.5 mph - N/A   Clear
4:56 AM 37.0 °F 34.5 °F 36.0 °F 96% 30.43 in 10.0 mi South 3.5 mph - N/A   Clear
5:56 AM 36.0 °F 33.3 °F 36.0 °F 100% 30.42 in 10.0 mi SSE 3.5 mph - N/A   Clear
6:56 AM 39.9 °F 36.7 °F 39.0 °F 97% 30.43 in 10.0 mi South 4.6 mph - N/A   Clear
7:56 AM 45.0 °F 40.1 °F 37.9 °F 76% 30.43 in 10.0 mi SSW 9.2 mph - N/A   Partly Cloudy
8:56 AM 48.0 °F - 36.0 °F 63% 30.40 in 10.0 mi South 11.5 mph 20.7 mph N/A   Scattered Clouds
9:56 AM 53.1 °F - 37.0 °F 55% 30.39 in 10.0 mi South 10.4 mph 19.6 mph N/A   Clear
10:56 AM 57.0 °F - 37.9 °F 49% 30.38 in 10.0 mi SSW 15.0 mph - N/A   Overcast
11:56 AM 60.1 °F - 39.9 °F 47% 30.33 in 10.0 mi SSW 12.7 mph 24.2 mph N/A   Scattered Clouds
12:56 PM 62.1 °F - 42.1 °F 48% 30.28 in 10.0 mi South 18.4 mph 26.5 mph N/A   Clear
1:56 PM 63.0 °F - 43.0 °F 48% 30.27 in 10.0 mi South 19.6 mph 27.6 mph N/A   Clear
2:56 PM 64.0 °F - 44.1 °F 48% 30.22 in 10.0 mi South 15.0 mph 25.3 mph N/A   Clear
3:56 PM 62.1 °F - 43.0 °F 50% 30.19 in 10.0 mi South 18.4 mph 32.2 mph N/A   Partly Cloudy
4:56 PM 59.0 °F - 46.0 °F 62% 30.17 in 10.0 mi South 15.0 mph 27.6 mph 0.00 in Rain Light Rain
5:56 PM 57.9 °F - 45.0 °F 62% 30.16 in 10.0 mi SSW 21.9 mph 27.6 mph 0.00 in   Scattered Clouds
6:56 PM 55.9 °F - 46.0 °F 69% 30.14 in 10.0 mi SSW 15.0 mph 24.2 mph N/A   Mostly Cloudy
7:51 PM 55.4 °F - 46.4 °F 72% 30.10 in 10.0 mi SSW 13.8 mph 23.0 mph N/A   Mostly Cloudy
7:56 PM 55.9 °F - 46.9 °F 72% 30.14 in 10.0 mi SW 11.5 mph 20.7 mph N/A   Overcast
8:56 PM 55.9 °F - 48.0 °F 75% 30.13 in 10.0 mi SSW 13.8 mph 25.3 mph N/A   Overcast
9:56 PM 55.9 °F - 48.9 °F 77% 30.12 in 10.0 mi SSW 11.5 mph 20.7 mph N/A   Overcast
10:24 PM 55.4 °F - 50.0 °F 82% 30.07 in 10.0 mi SSW 17.3 mph 24.2 mph N/A   Overcast
10:56 PM 55.9 °F - 50.0 °F 80% 30.10 in 10.0 mi SW 16.1 mph - N/A   Partly Cloudy
11:56 PM 57.0 °F - 50.0 °F 77% 30.09 in 10.0 mi SW 15.0 mph 26.5 mph N/A   Mostly Cloudy